Search for airport 
image banner adimage banner ad
image banner ad

VELP - Lengpui

Located in Aizwal, India

ICAO - VELP, IATA - AJL

Data provided by Airmate  

General information

Coordinates: N23°50'17" E92°37'36"
Elevation is 1398 feet MSL.
 
Rated:
View ratings: [VIEW]


View others Airports in Mizoram

Operational data

Open for public use
Current time UTC:
Current local time:
Weather
TAF: TAF VELP 240800Z 2409/2418 18004KT 5000 HZ FEW020 SCT100 BECMG 2414/2416 00000KT 3000 BR
View NOTAMs / SUP AIP / TFR affecting this airport [VIEW]
Communications frequencies: [VIEW]

Runways:

RWY identifierQFULength (ft)Width (ft)SurfaceLDA (ft)
17171°8202148ASP
35351°8202148

Airport contact information

Address: Aizwal India

Satellite view of VELP